Regional Weather Roundup
Issued by NWS Bismarck, ND

Home | Current Version | Previous Version | Text Only | Print | Product List | Glossary On
Versions: 1 2 3 4 5 6 7 8 9 10 11 12 13 14 15 16 17 18 19 20 21 22 23 24 25 26 27 28 29 30 31 32 33 34 35 36 37 38 39 40 41 42 43 44 45 46 47 48 49 50
000
ASUS43 KBIS 070120
RWRBIS

NWR BROADCAST TEXT
NATIONAL WEATHER SERVICE BISMARCK ND
700 PM CST FRI MAR 06 2015

NOTE: "FAIR" INDICATES FEW OR NO CLOUDS BELOW 12,000 FEET WITH NO
SIGNIFICANT WEATHER AND/OR OBSTRUCTIONS TO VISIBILITY.


CITY           SKY/WX    TMP DP  RH WIND       PRES   REMARKS
WILLISTON      CLOUDY    43  29  57 W15       30.00S
MINOT          MOCLDY    40  30  67 W21       29.89R
MINOT AFB      MOCLDY    39  34  81 W23       29.87R
BISMARCK       CLOUDY    46  29  51 W12       29.97R
DICKINSON      CLOUDY    45  26  47 NW10      29.98R
GARRISON         N/A     43  30  60 W21G35    29.92F
HETTINGER ARPT MOCLDY    41  21  44 NW5       30.01S
JAMESTOWN      MOCLDY    33  23  66 S12       29.91F
BEACH          CLOUDY    45  25  45 N13       30.05R
CARRINGTON     FAIR      32  27  80 MISG      29.89S
CROSBY         MOCLDY    37  32  81 NW23      29.96R
HARVEY         FAIR      37  28  70 W17       29.88S
HAZEN          MOCLDY    41  30  65 NW9       29.99R
LINTON         FAIR      37  27  65 NW5       29.98R
MANDAN         CLOUDY    45  30  57 W14       29.98S
OAKES            N/A     34  27  75 S12       29.97F
RUGBY          MOCLDY    36  32  87 W18G25    29.84S
TIOGA          FAIR      37  32  81 NW22G32   29.98S
WATFORD CITY   FAIR      43  32  65 W13       29.98S
$$

CITY           SKY/WX    TMP DP  RH WIND       PRES   REMARKS
GRAND FORKS    CLOUDY    36  24  62 S9        29.91F
GRAND FORKS AF CLOUDY    37  22  55 SW12      29.90F
DEVILS LAKE    MOCLDY    30  23  74 SW16      29.84F WCI  19
FARGO          CLOUDY    36  22  56 S9        29.98F
CANDO          CLOUDY    32  25  74 SW13      29.82F
CAVALIER       MOCLDY    32  28  86 SW14G21   29.85F
GWINNER        PTCLDY    36  27  69 SW9       29.99F
ROLLA          FLURRIES  30  28  93 SW15      29.80F WCI  19
WALHALLA         N/A     32  32 100 SW14G22   29.82F
$$

CITY           SKY/WX    TMP DP  RH WIND       PRES   REMARKS
ABERDEEN       CLOUDY    35  27  72 S9        30.02F
MOBRIDGE       CLOUDY    44  22  41 CALM      29.96S
BUFFALO          N/A     46  20  35 W13       29.97S
RAPID CITY     CLEAR     44  22  41 NW12      30.10R
GLASGOW        CLEAR     44  25  47 NW13      30.08R
SIDNEY         MOCLDY    43  27  52 W9        30.06S
WOLF POINT     PTCLDY    44  27  51 W12       30.06S
GLENDIVE       PTCLDY    45  27  49 N14G21    30.08R
MILES CITY       N/A    N/A N/A N/A MISG        N/A
BAKER          CLOUDY    48  24  39 W13       30.04R
$$

CITY           SKY/WX    TMP DP  RH WIND       PRES   REMARKS
BILLINGS       PTCLDY    55  17  22 NW17G25   30.15R
GREAT FALLS    MOCLDY    43  20  39 W5        30.17R
REGINA         MOCLDY    36  32  87 NW17G24   29.97R
ESTEVAN        CLOUDY    37  30  75 W24G31    29.93R
$$



USA.gov is the U.S. government's official web portal to all federal, state and local government web resources and services.